This demonstration page uses our WeatherBlox Daily Observations layout. Learn more.

Left ArrowRight Arrow

38.80484, -77.04692

Hourly Observations for November 14, 2020

Temp ( °F °C ) Dew Point ( °F °C ) Humidity (%) Winds ( mph kmh ) Pressure ( in mb ) Visibility ( mi km ) Precip ( " mm )
12:52 am 00:52 Clear 48 8.9 37 2.8 66 66 W 3 6 30.12 1020 10 16.0934 0 0
1:52 am 01:52 Mostly Clear 53 11.7 33 0.6 47 47 NW 5 7 30.12 1020 10 16.0934 0 0
2:52 am 02:52 Mostly Clear 48 8.9 36 2.2 63 63 S 5 7 30.13 1020 10 16.0934 0 0
3:52 am 03:52 Partly Cloudy 46 7.8 37 2.8 71 71 S 3 6 30.16 1021 10 16.0934 0 0
4:52 am 04:52 Partly Cloudy 44 6.7 38 3.3 79 79 SSW 5 7 30.17 1022 10 16.0934 0 0
5:52 am 05:52 Mostly Clear 42 5.6 38 3.3 85 85 SSW 5 7 30.18 1022 10 16.0934 0 0
6:52 am 06:52 Mostly Sunny 45 7.2 39 3.9 80 80 Calm 30.2 1023 10 16.0934 0 0
7:52 am 07:52 Mostly Sunny 47 8.3 40 4.4 77 77 N 8 13 30.22 1023 10 16.0934 0 0
8:52 am 08:52 Mostly Cloudy 53 11.7 38 3.3 57 57 NNW 8 13 30.24 1024 10 16.0934 0 0
9:52 am 09:52 Mostly Cloudy 54 12.2 37 2.8 53 53 NNW 9 15 30.24 1024 10 16.0934 0 0
10:52 am 10:52 Mostly Cloudy 56 13.3 38 3.3 51 51 NNW 10 17 30.24 1024 10 16.0934 0 0
11:52 am 11:52 Partly Cloudy 58 14.4 37 2.8 46 46 W 10 17 30.23 1024 10 16.0934 0 0
12:52 pm 12:52 Partly Cloudy 59 15 35 1.7 41 41 W 8 13 30.21 1023 10 16.0934 0 0
1:52 pm 13:52 Partly Cloudy 60 15.6 34 1.1 38 38 VRB 5 7 30.19 1023 10 16.0934 0 0
2:52 pm 14:52 Partly Cloudy 61 16.1 33 0.6 35 35 W 9 15 30.19 1022 10 16.0934 0 0
3:52 pm 15:52 Mostly Sunny 60 15.6 32 0 35 35 WNW 7 11 30.2 1023 10 16.0934 0 0
4:52 pm 16:52 Mostly Sunny 54 12.2 34 1.1 47 47 NNW 7 11 30.2 1023 10 16.0934 0 0
5:52 pm 17:52 Partly Cloudy 56 13.3 38 3.3 51 51 E 5 7 30.22 1023 10 16.0934 0 0
6:52 pm 18:52 Mostly Clear 53 11.7 38 3.3 57 57 ENE 6 9 30.23 1024 10 16.0934 0 0
7:52 pm 19:52 Mostly Clear 52 11.1 37 2.8 57 57 S 5 7 30.23 1024 10 16.0934 0 0
8:52 pm 20:52 Mostly Clear 51 10.6 37 2.8 59 59 ENE 5 7 30.24 1024 10 16.0934 0 0
9:52 pm 21:52 Clear 51 10.6 33 0.6 50 50 Calm 30.26 1025 10 16.0934 0 0
10:52 pm 22:52 Mostly Clear 49 9.4 39 3.9 69 69 NE 6 9 30.24 1024 10 16.0934 0 0
11:52 pm 23:52 Cloudy 49 9.4 40 4.4 71 71 ENE 3 6 30.23 1024 10 16.0934 0 0

Powered by AerisWeather